Погода в Логовском

Россия / Алтайский край     53°29′53″N   84°11′54″E
темп.,
°C
ветер,
м/с
пор.,
м/с
влажн.,
%
обл.,
%
осадки,
мм/ч
давл.,
гПа
погр.,
м
24 октября, вс
вс2401:00+6юз122075100 1.7 10221216
04:00+6юз111971100 0.1 10221071
07:00+6юз111960100 0.1 1022998
10:00+7юз111957100 0.0 1022955
13:00+8юз111756100 0.0 1022926
16:00+9юз10155414 0.0 10231048
19:00+7юз8166158 0.0 1024619
22:00+7юз6146441 0.0 1025444
25 октября, пн
пн2501:00+6юз5137099 0.0 1024351
04:00+7ююз51257100 0.0 1023412
07:00+8ююз61451100 0.0 1021525
10:00+8юз7155283 0.0 1020579
13:00+11юз8144534 0.0 1019862
16:00+12юз8134384 0.0 1018945
19:00+9юз6125164 0.0 1019364
22:00+8юз495854 0.0 1020177
26 октября, вт
вт2601:00+6юз336561 0.0 102038
04:00+5ю3367100 0.0 101928
07:00+5ююв3565100 0.0 101897
10:00+6ююв3759100 0.0 1016188
13:00+11ююв474481 0.0 1012340
16:00+13ююз6144495 0.0 10091182
19:00+11юз6153788 0.0 1008455
22:00+11юз8193875 0.0 1008674
27 октября, ср
ср2701:00+9юз81544100 0.0 1010492
04:00+8з61160100 0.0 1013629
07:00+3зсз4892100 1.4 1018624
10:00+3сз5662100 0.3 1022660
13:00+3зсз4447100 0.3 1023926
16:00+3зсз3437100 0.0 10231149
19:000з344915 0.0 102571
22:00−1з36554 0.0 1027100
28 октября, чт
чт2801:00−2з236150 0.0 102948
04:00−2зюз2261100 0.0 103041
07:00−2юз2259100 0.0 103227
10:00−1ююз2352100 0.0 1032152
13:00+2юз234065 0.0 1032696
16:00+3ююз23365 0.0 1031815
19:000ю22485 0.0 103121
22:00−2ю34555 0.0 103153